Regional Weather Roundup
Issued by NWS

Home | Current Version | Previous Version | Text Only | Print | Product List | Glossary On
Versions: 1 2 3 4 5 6 7 8 9 10 11 12 13 14 15 16 17 18 19 20 21 22 23 24 25 26 27 28 29 30 31 32 33 34 35 36 37 38 39 40 41 42 43 44 45 46 47 48 49 50
536
ASUS43 KBIS 231502
RWRND

NORTH DAKOTA REGIONAL WEATHER ROUNDUP
NATIONAL WEATHER SERVICE BISMARCK ND
1000 AM CDT WED AUG 23 2017

NOTE: "FAIR" INDICATES FEW OR NO CLOUDS BELOW 12,000 FEET WITH NO
SIGNIFICANT WEATHER AND/OR OBSTRUCTIONS TO VISIBILITY.


NDZ001>003-009>011-017-231600-
NORTHWEST NORTH DAKOTA

CITY           SKY/WX    TMP DP  RH WIND       PRES   REMARKS
WILLISTON      SUNNY     67  45  45 SW8       30.02F
MINOT          MOSUNNY   70  46  42 S8        30.01F
MINOT AFB      SUNNY     72  45  36 SW10      29.99F
$$

NDZ018>021-031>035-040>046-231600-
SOUTHWEST NORTH DAKOTA

CITY           SKY/WX    TMP DP  RH WIND       PRES   REMARKS
BISMARCK       SUNNY     64  52  64 CALM      30.06F
DICKINSON      SUNNY     70  48  45 S15       30.05F
GARRISON         N/A     66  50  56 S6        30.04F
HETTINGER ARPT SUNNY     67  49  52 SE9       30.08S
$$

NDZ004>008-012>016-024-026-027-054-231600-
NORTHEAST NORTH DAKOTA

CITY           SKY/WX    TMP DP  RH WIND       PRES   REMARKS
GRAND FORKS    MOSUNNY   64  53  67 SE5       30.10S
GRND FRKS AFB  SUNNY     63  52  66 SE5       30.10F
DEVILS LAKE    PTSUNNY   65  50  58 S7        30.08S
$$

NDZ022-023-025-028>030-036>039-047>053-231600-
SOUTHEAST NORTH DAKOTA

CITY           SKY/WX    TMP DP  RH WIND       PRES   REMARKS
FARGO          SUNNY     66  52  60 CALM      30.10F
JAMESTOWN      SUNNY     63  53  70 SE6       30.07F
$$





USA.gov is the U.S. government's official web portal to all federal, state and local government web resources and services.